Location: Unspecified
(50.7693°N, 0.0000°E)
Time: 13:14:30
(UTC+00:00)

SR - Pass Details

Date: 26 June 2019
Orbit: 580 x 876 km, 66.7° (Epoch: 17 July)

Event Time Altitude Azimuth Distance (km) Brightness Sun altitude
Rises 04:57:01 0° 264° (W) 2,807 ? 8.2°
Reaches altitude 10° 04:59:41 10° 281° (W) 1,927 ? 8.6°
Maximum altitude 05:02:56 20° 330° (NNW) 1,404 ? 9.1°
Drops below altitude 10° 05:06:19 10° 19° (NNE) 2,013 ? 9.5°
Sets 05:09:12 0° 36° (NE) 2,973 ? 9.9°
